Weather in Pinamar

Argentina     37°05′35″S   56°52′43″W
temp.,
°C
wind,
m/s
gust,
m/s
humid.,
%
clouds,
%
prec.,
mm/h
press.,
hPa
HPBL,
m
8 may, sat
sat800:00+9e23900 0.0 102857
03:00+8ne11925 0.0 102820
06:00+8nne119310 0.0 102815
09:00+11ne138395 0.0 102997
12:00+16nne3460100 0.0 1028989
15:00+16nne3457100 0.0 10271197
18:00+11ne23831 0.0 102659
21:00+9nne2490100 0.0 102782
9 may, sun
sun900:00+9nne2784100 0.0 1026125
03:00+10nne2391100 0.0 102551
06:00+10n2794100 0.0 1024133
09:00+13n2791100 0.0 1025232
12:00+17n3774100 0.0 1024940
15:00+17n3678100 0.1 1021824
18:00+14nne2491100 0.0 102193
21:00+12n1196100 0.0 102119
10 may, mon
mon1000:00+12nw2296100 0.0 102029
03:00+11wsw2797100 0.0 1019164
06:00+10wsw310965 0.0 1019282
09:00+11sw3118866 0.0 1020322
12:00+15sw59460 0.0 10201278
15:00+16sw6105228 0.0 10191871
18:00+12sw411664 0.0 10201020
21:00+10wsw413724 0.0 1021570
11 may, tue
tue1100:00+9w412755 0.0 1020490
03:00+8w413705 0.0 1020377
06:00+10wsw3106892 0.0 1019388
09:00+10wsw310785 0.1 1021490
12:00+15sw595559 0.0 10201569
15:00+15sw585798 0.0 10191685
18:00+13wsw4107483 0.1 1019587
21:00+11wsw2983100 0.1 1020315
12 may, wed
wed1200:00+9wsw29910 0.0 1020248
03:00+8w39890 0.0 1019208
06:00+6wsw27840 0.0 1020136
09:00+8w37670 0.0 1021177
12:00+15wsw36410 0.0 1021555
15:00+17wsw24392 0.0 1019652
18:00+11wnw22665 0.0 101919
21:00+9wnw22745 0.0 102022